Osceola, IA (50213)

9:56 PM CDT on September 20, 2014 (GMT -0500)
Osceola Municipal | Change Station
CLOSE
Current Station
Airport
Location: Osceola Municipal,
Elevation: 1109 ft
Nearby Weather Stations

Elev 1109 ft 41.05 °N, 93.69 °W | Updated 21 minutes ago

Clear
Clear
70 °F
Feels Like 70 °F
N
8
Wind Variable Wind from WSW

Today
High -- | Low -- °F
--% Chance of Precip.
Yesterday
High -- | Low -- °F
Precip. -- in
7:00 AM 7:15 PM
Waning Crescent, 9% visible
Pressure 29.91 in
Visibility 10.0 miles
Clouds Clear
Dew Point 61 °F
Humidity 72%
Rainfall 0.00 in
Snow Depth Not available.
UV 0 out of 12
Pollen 5.80 out of 12
Air Quality Not available.
Flu Activity Not available.
METAR KI75 210235Z AUTO 25007KT 10SM CLR 21/16 A2991 RMK AO2 T02130161

More Conditions Fewer Conditions

Pressure 29.91 in
Visibility 10.0 miles
Clouds Clear
Dew Point 61 °F
Humidity 72%
Rainfall 0.00 in
Snow Depth Not available.
UV 0 out of 12
Pollen 5.80 out of 12
Air Quality Not available.
Flu Activity Not available.
METAR KI75 210235Z AUTO 25007KT 10SM CLR 21/16 A2991 RMK AO2 T02130161

More Conditions Fewer Conditions

10-Day Weather Forecast

Almanac

Astronomy

Sep. 20, 2014 Rise Set
Actual Time 7:00 AM CDT 7:15 PM CDT
Civil Twilight 6:33 AM CDT 7:43 PM CDT
Nautical Twilight 6:00 AM CDT 8:15 PM CDT
Astronomical Twilight 5:27 AM CDT 8:48 PM CDT
Moon 3:39 AM CDT (9/20) 5:20 PM CDT (9/20)
Length of Visible Light 13h 09m
Length of Day
12h 15m
Tomorrow will be 2m 43s shorter.
Waning Crescent, 9% of the Moon is Illuminated
Today
Waning Crescent
Sep 24
New
Oct 1
First Quarter
Oct 8
Full
Oct 15
Last Quarter

Today's Extremes

State Highs State Lows

Community

WunderPhotos

Upload Photos

1,755,066 photos uploaded!

WunderBlogs® & News

Nearby

Snow Depth

Station Depth Elevation
No new snow has been reported.

Earthquake Activity

City Distance Mag. Time & Date
No recent earthquake activity has been reported nearby.
Minimum magnitude displayed is 2.5.

Coastal Water Temperatures

Place Temperature
No Stations Reporting

Nearby Weather Stations